Theta_e
296 296 295 296 296 297 298 297 296 296 295 294 294 296 296 297 296 296 297 296 299 300 299 299 298 300 300 300 301 300 300 299 300 302 302 302 304 304 304 303 305 304 304 304 303 305 307 297 299 302 297 295 293 292
296 295 295 296 297 296 296 296 296 295 294 294 295 296 296 295 295 295 297 295 296 300 298 296 295 295 297 298 299 298 299 299 299 300 300 302 304 304 304 305 302 305 303 305 303 302 297 295 294 293 293 294 292 290
294 295 294 296 296 296 296 295 295 294 294 294 294 296 295 295 295 295 297 296 298 299 299 299 298 297 296 296 297 299 299 298 299 298 302 302 304 304 305 304 302 300 301 302 301 298 296 294 292 292 291 290 289 288
294 296 295 296 295 296 294 294 294 294 293 293 295 295 295 294 294 296 297 295 298 299 300 298 296 296 296 297 297 299 298 298 298 299 300 302 303 302 303 303 303 301 301 300 299 297 295 294 293 291 289 289 288 287
294 295 297 295 296 296 294 294 293 292 292 295 295 295 295 295 296 296 295 295 295 300 300 298 297 296 296 297 297 298 298 298 298 298 300 300 301 303 302 302 301 298 299 301 303 298 297 294 292 290 289 288 287 286
294 296 296 296 297 295 294 293 293 292 294 295 295 294 294 293 294 295 300 296 294 297 300 300 296 298 297 298 298 299 299 299 299 299 298 297 299 302 303 303 297 296 296 297 296 295 294 292 290 289 288 287 286 286
294 296 296 296 296 295 294 293 292 293 294 295 294 294 294 294 294 298 298 295 293 295 302 299 298 298 297 299 299 300 299 299 299 299 298 297 299 301 302 303 297 296 296 295 294 293 292 291 290 288 287 286 286 285
296 296 296 296 295 294 293 293 293 293 293 293 293 293 294 293 294 295 294 293 293 297 300 300 299 299 298 299 300 300 299 299 299 299 299 298 300 300 301 298 297 295 295 294 294 294 293 290 289 288 286 286 286 285
297 296 295 294 294 293 293 293 293 294 294 294 293 293 293 294 296 295 292 292 293 297 300 299 300 301 298 299 300 300 300 300 298 300 299 299 300 300 300 298 296 295 295 294 293 293 292 290 289 288 288 287 286 285
295 294 294 293 294 294 294 293 294 293 292 289 290 293 296 294 292 292 294 297 297 296 297 299 298 300 300 300 300 300 299 300 300 299 299 299 299 298 297 297 297 296 295 294 293 292 291 291 290 289 288 287 286 284
294 294 294 294 293 294 293 293 293 292 289 293 294 294 294 293 294 295 296 297 296 297 297 298 299 300 298 301 301 299 299 299 299 300 299 299 299 296 296 296 296 295 294 294 294 293 292 291 289 288 286 284 283 282
293 293 294 293 294 294 293 292 291 290 291 293 293 293 294 295 295 295 295 295 297 297 297 300 300 300 300 299 300 299 299 299 301 299 299 300 297 295 295 294 294 293 293 292 292 292 291 289 287 285 284 282 280 278
293 293 293 294 293 292 291 290 291 292 292 293 294 294 294 294 295 295 295 297 298 298 297 299 300 300 300 300 300 299 299 302 299 301 301 300 294 292 291 291 290 290 289 289 288 287 286 285 283 282 280 277 276 275
293 292 293 293 293 291 291 291 291 291 293 294 293 293 294 295 295 295 297 298 296 296 298 299 297 301 298 300 298 298 299 297 300 302 303 297 293 291 290 289 289 287 286 285 284 282 280 277 276 276 276 275 274 273
292 293 293 293 292 291 291 291 290 291 294 294 294 294 295 294 294 295 296 297 294 295 299 300 299 300 299 298 297 296 298 300 302 303 301 295 291 289 288 287 285 283 282 281 279 277 275 274 274 274 273 274 273 272
292 293 293 293 292 291 291 290 290 292 293 294 294 295 295 298 298 299 299 298 297 297 297 299 299 299 299 299 297 299 300 301 303 299 294 290 288 288 286 284 282 281 280 278 277 276 275 274 275 274 273 272 272 273
292 293 293 292 290 290 290 291 292 291 293 294 295 293 295 297 297 296 298 297 297 299 299 297 297 298 298 297 298 299 302 301 295 291 290 290 288 286 283 280 278 278 278 277 277 277 276 275 273 274 275 273 274 274
293 292 292 291 291 291 291 291 292 293 292 294 295 294 294 295 296 294 294 294 298 298 297 298 298 298 299 299 301 301 295 290 288 289 288 287 285 282 281 281 278 278 278 277 277 276 275 275 277 278 277 275 276 275
293 292 291 291 291 291 292 292 293 292 292 293 293 293 293 293 293 293 293 293 294 296 297 295 296 298 299 300 301 296 293 292 290 287 284 283 282 280 280 279 278 278 278 278 277 277 277 278 279 278 278 278 279 279
292 291 291 291 291 292 292 292 292 293 293 292 292 292 291 292 292 293 294 294 295 295 296 296 297 299 299 298 295 294 293 290 288 288 285 283 280 279 280 279 280 279 279 279 278 278 279 279 279 279 279 280 280 278
291 291 291 291 292 293 292 292 292 292 292 292 291 291 292 291 292 293 293 293 295 294 295 296 297 294 289 288 289 289 289 288 291 291 289 284 282 282 281 281 280 280 280 280 280 280 280 281 280 280 279 279 278 277
291 290 290 290 292 292 292 291 292 292 292 291 292 292 293 293 293 293 293 293 294 294 295 295 294 292 289 289 288 287 286 285 284 283 284 283 284 283 282 281 281 282 281 281 281 281 281 280 279 279 278 276 276 275
290 290 290 290 291 292 292 291 293 292 292 291 291 291 292 292 292 292 292 292 294 289 288 290 289 288 290 285 285 284 284 285 286 286 283 285 284 283 282 282 282 282 282 281 281 281 281 279 278 278 276 276 275 274
290 290 290 290 291 292 291 293 293 292 291 291 291 291 292 292 290 291 292 292 291 287 287 288 288 288 287 286 288 286 284 285 285 284 283 283 283 282 282 282 282 282 281 280 280 280 279 279 276 277 276 275 275 275
291 289 290 289 290 291 292 293 292 292 292 291 291 292 292 291 293 292 292 293 290 289 288 287 288 289 291 290 287 285 281 284 285 285 282 283 283 282 282 281 281 281 280 281 280 280 279 277 277 276 275 275 274 273
290 289 291 291 291 292 292 292 292 292 292 292 293 291 291 292 292 293 292 292 290 289 289 288 289 288 287 287 288 285 283 282 283 284 281 281 282 283 282 282 281 279 280 281 280 279 276 276 276 274 273 271 271 271
290 291 290 289 291 292 292 292 292 293 292 292 293 292 292 292 293 292 289 286 288 285 283 284 287 288 288 285 283 282 281 281 282 282 281 280 281 282 282 282 282 281 279 279 279 278 277 275 274 274 272 270 269 270
290 290 291 291 291 292 293 293 293 293 293 292 292 292 292 292 294 291 288 284 284 282 281 282 283 284 285 283 281 279 277 278 277 277 277 277 276 278 279 280 280 280 278 278 277 277 276 275 273 271 270 268 265 266
289 289 290 289 291 292 293 293 293 292 290 292 294 294 293 290 287 286 282 282 282 282 283 283 280 279 279 278 278 278 278 279 280 281 282 281 280 276 276 277 277 277 277 276 275 274 273 272 271 269 267 265 263 263
289 289 291 289 290 293 293 288 290 284 283 284 284 286 286 286 282 279 280 281 283 284 284 284 281 281 281 281 279 277 278 280 281 282 283 282 281 276 274 274 274 274 273 272 270 269 271 270 269 267 265 263 263 262
286 287 289 290 291 287 282 279 279 279 280 282 278 286 289 283 281 277 278 280 282 281 281 281 280 280 281 280 281 280 280 278 279 280 281 280 278 275 274 273 273 272 271 270 269 268 267 267 266 265 264 262 261 261
286 289 290 289 288 281 279 283 284 285 283 284 286 279 283 285 289 283 273 275 278 280 281 282 282 281 279 280 279 280 280 279 279 280 280 278 275 274 274 273 272 271 270 269 268 267 267 266 265 264 262 260 259 259
285 285 285 285 285 285 283 284 285 286 283 284 283 280 282 284 288 279 272 273 274 278 280 279 278 278 278 278 278 278 279 278 279 280 279 278 277 275 274 272 270 269 269 268 267 266 265 264 263 261 261 260 259 258
Wind_Speed
7 8 8 5 26 28 30 29 27 26 23 21 20 17 16 18 22 13 3 8 1 3 5 4 2 4 4 4 5 5 5 2 3 3 3 3 3 2 4 2 1 4 5 4 3 3 2 11 1 4 5 6 5 7
5 6 5 13 26 28 29 27 26 23 22 20 17 15 15 16 17 10 3 5 5 3 5 7 11 9 5 3 5 3 2 3 2 2 2 3 3 3 4 4 2 3 3 2 4 4 5 7 6 4 4 6 7 7
9 8 7 19 28 29 29 26 24 23 21 19 15 13 12 12 13 9 8 10 10 5 6 4 6 9 10 5 1 2 2 3 3 1 2 2 3 2 4 3 4 4 4 2 6 5 6 6 6 7 7 8 8 9
7 8 17 29 31 30 26 25 24 22 20 17 13 10 9 9 12 11 9 6 4 4 4 5 5 5 9 9 10 9 11 6 5 1 2 2 3 2 2 4 0 3 5 6 5 7 8 6 6 7 8 9 10 9
9 17 33 34 31 27 26 26 24 22 20 16 14 11 13 15 16 18 15 7 4 1 4 5 7 9 9 13 16 12 8 4 2 2 2 2 3 3 3 2 3 1 3 3 2 8 6 8 7 8 8 9 9 10
14 37 36 34 32 29 27 25 23 22 21 19 19 21 13 9 9 5 3 8 8 7 4 4 2 3 6 11 13 10 5 4 2 2 2 2 2 1 3 2 3 4 2 4 5 6 12 12 10 9 10 9 10 10
21 39 35 34 32 30 26 25 22 21 20 19 15 10 6 5 6 6 3 1 5 6 3 5 4 2 1 2 3 3 6 3 3 2 2 2 3 1 1 2 9 7 6 10 14 14 11 11 7 11 12 13 13 12
34 38 32 33 33 30 27 23 22 20 19 18 20 23 21 18 13 8 10 7 7 7 3 4 3 4 1 2 3 2 2 1 3 2 2 2 4 1 2 8 11 11 10 11 8 2 11 15 14 12 13 12 10 9
40 38 37 33 33 29 26 23 22 22 24 24 18 12 6 7 3 2 4 8 11 4 3 2 6 4 2 2 2 2 2 2 0 1 2 2 3 3 1 12 12 12 10 11 7 11 15 14 12 11 10 9 9 9
40 38 35 32 30 29 25 22 23 23 20 13 5 4 2 2 1 3 2 1 3 3 3 3 1 4 3 2 2 2 1 1 2 2 3 2 1 2 3 9 10 11 9 14 13 13 13 12 11 10 9 7 9 10
36 33 32 31 29 25 27 22 20 17 10 3 2 2 3 2 1 3 3 3 1 3 2 3 2 7 2 3 3 1 2 1 1 3 2 3 3 5 5 9 10 10 11 11 7 10 10 12 12 11 10 12 12 12
31 29 30 29 30 24 24 19 17 6 2 4 10 6 2 1 2 4 3 2 1 3 2 4 5 3 3 1 2 2 1 1 1 4 2 3 3 8 9 10 8 9 10 8 9 11 12 13 13 14 14 14 13 12
30 31 30 31 28 26 21 15 12 22 12 5 3 3 2 3 3 2 4 3 3 4 4 5 4 2 3 1 3 2 2 1 2 3 2 2 7 8 9 9 9 9 11 13 13 14 15 16 15 15 15 14 15 13
32 31 30 30 28 23 17 21 16 5 4 3 3 4 3 2 2 2 3 4 3 3 6 4 3 1 1 2 1 2 2 1 2 2 0 4 10 10 8 8 10 10 9 11 13 15 15 15 15 14 14 16 16 13
32 31 30 27 24 20 20 12 5 5 3 3 1 3 2 2 2 3 2 3 3 3 3 4 3 1 2 3 1 1 2 3 2 1 2 4 11 11 10 9 9 9 8 9 13 13 14 15 16 15 12 12 14 15
33 28 21 24 21 17 10 6 4 3 3 2 3 3 2 6 6 4 5 5 2 2 1 2 2 2 2 2 3 3 2 2 2 2 3 8 11 10 9 8 8 11 12 12 12 14 15 14 15 15 13 12 12 12
17 9 24 21 18 12 5 3 3 4 3 3 3 3 5 5 5 3 2 3 2 1 2 1 2 2 3 2 2 2 2 2 2 3 4 8 11 10 9 11 12 13 13 14 15 15 15 14 16 15 13 10 10 9
23 27 23 18 13 7 4 6 3 4 5 4 3 4 5 3 3 2 2 3 1 1 0 1 0 2 2 3 2 2 2 2 3 3 5 7 9 12 12 13 13 14 15 15 15 15 15 15 13 12 13 12 9 8
28 24 19 13 3 3 2 4 4 4 4 2 3 3 3 2 3 3 2 1 2 1 2 1 1 2 2 1 1 2 3 3 4 4 5 7 11 13 13 14 14 15 16 16 17 14 14 12 11 13 12 11 7 6
28 20 11 5 5 3 3 3 2 3 2 2 2 3 2 1 1 1 1 1 1 1 2 2 3 1 1 1 1 2 3 6 7 7 6 6 10 13 14 15 14 16 16 15 13 14 14 12 11 11 10 8 6 6
17 10 5 4 4 6 3 2 3 2 3 2 2 3 2 2 1 0 1 1 2 2 3 3 2 1 2 2 1 2 6 8 5 4 7 8 13 13 14 13 17 17 16 15 15 14 12 12 12 11 11 8 7 6
8 6 2 5 3 3 3 4 3 2 2 3 3 1 2 2 2 2 1 3 3 2 2 1 1 3 3 2 2 2 7 8 7 8 10 18 10 10 13 16 17 15 15 15 15 14 13 12 12 11 10 9 7 6
9 3 3 4 3 3 2 1 2 1 2 3 2 2 1 1 1 1 2 2 2 1 1 1 1 2 4 5 6 6 7 8 6 6 10 10 12 14 15 16 16 16 15 14 14 14 14 12 13 12 10 9 8 7
4 3 3 3 3 2 0 2 1 2 2 2 2 1 2 2 1 2 3 2 1 0 1 2 4 3 4 4 3 5 6 6 7 8 8 11 11 12 14 15 15 15 14 16 15 14 13 12 13 11 10 9 7 6
2 2 0 3 1 2 2 3 2 2 1 3 2 2 2 2 2 2 2 1 1 2 2 3 4 2 2 3 4 5 5 7 6 4 7 9 12 14 13 13 14 14 15 17 15 14 13 13 12 10 10 8 8 6
2 1 0 3 2 1 3 3 3 4 2 3 3 1 2 2 2 3 2 0 1 2 2 3 4 3 3 3 4 5 7 7 7 6 8 10 13 15 14 11 13 11 13 14 16 15 14 14 13 12 10 9 9 8
2 2 1 0 1 2 2 1 2 2 3 4 3 4 3 2 3 1 1 2 1 1 1 0 2 3 3 6 6 7 9 7 5 5 10 10 9 10 14 15 14 14 16 13 12 15 17 16 15 13 12 10 8 6
1 3 3 4 3 2 2 2 3 3 3 3 4 4 3 3 0 1 1 3 3 2 2 2 2 2 5 7 9 12 10 10 11 13 13 11 8 9 10 10 11 15 15 12 12 13 14 15 15 14 12 12 9 7
3 3 3 3 2 3 4 4 3 2 2 3 2 3 2 2 1 2 3 5 5 5 5 6 4 6 9 9 8 7 13 14 15 13 10 8 9 5 9 14 17 17 17 16 14 13 14 15 15 15 14 12 11 8
4 4 3 4 3 5 2 1 0 2 1 2 2 1 2 2 2 4 5 6 7 7 6 6 9 9 10 11 10 9 8 9 7 11 8 8 11 15 16 16 16 16 16 17 18 19 17 17 17 16 14 11 8 7
3 4 3 3 3 1 2 1 1 1 0 0 0 2 2 2 3 4 7 7 7 6 8 8 8 8 11 11 12 12 9 9 9 8 7 12 17 20 18 18 17 16 16 17 18 18 18 15 13 12 11 10 8 7
3 5 3 4 2 2 1 1 0 1 1 2 2 1 2 2 3 3 0 4 7 9 9 8 9 9 10 9 10 7 7 14 14 12 11 17 19 21 22 20 19 18 19 19 18 18 15 14 13 11 11 9 8 7
2 2 1 2 2 2 2 2 2 2 2 2 2 1 2 2 4 2 1 2 4 5 6 7 6 5 10 10 9 10 9 14 15 14 15 18 23 25 23 21 20 21 21 20 18 16 15 14 13 11 10 10 8 7
Wind_Direction
241 236 270 254 168 166 161 153 156 161 164 164 166 173 178 180 183 195 169 186 230 106 69 28 53 129 127 172 164 137 161 171 138 160 177 135 177 108 129 39 105 181 188 188 193 231 171 358 151 315 9 63 74 68
226 236 246 159 162 159 159 156 161 160 162 162 160 162 165 171 177 179 138 164 134 65 92 72 69 44 29 39 134 138 71 105 110 131 168 138 144 156 150 131 125 182 330 69 353 59 77 45 65 35 38 89 84 93
286 234 214 172 166 159 157 157 157 160 160 158 154 155 162 170 171 179 137 142 122 115 95 98 44 24 34 39 70 155 135 125 141 12 101 88 120 204 158 126 139 145 171 104 183 99 99 89 80 75 75 85 84 82
272 224 183 164 160 158 155 154 155 156 154 151 149 151 155 161 171 160 143 153 112 108 98 71 31 44 12 63 77 79 111 103 109 161 88 100 112 291 99 101 209 54 163 142 89 123 118 95 99 108 98 94 93 92
277 193 167 164 156 155 156 153 152 151 150 143 137 139 144 147 138 129 98 74 106 6 123 116 102 37 55 77 80 87 101 118 125 121 95 83 98 138 105 165 118 221 149 193 94 146 91 114 126 127 117 112 112 112
157 155 158 158 160 152 154 153 149 147 146 140 135 127 113 116 138 128 74 41 81 106 114 120 88 58 73 80 76 69 62 59 64 73 79 98 82 261 159 139 127 102 80 139 142 108 106 114 111 116 119 119 118 109
153 152 151 150 151 147 149 149 148 147 146 138 130 120 112 114 109 69 78 70 82 86 103 120 124 99 30 71 67 65 53 54 23 94 82 95 129 262 127 147 153 127 117 120 125 120 118 137 128 132 121 117 118 113
150 150 148 148 147 149 144 148 144 142 141 135 126 111 97 89 81 62 34 67 84 95 75 112 108 160 324 135 112 358 67 64 36 69 140 161 149 230 197 130 142 139 133 142 139 111 125 126 129 127 130 136 131 122
142 145 145 147 150 146 143 144 139 136 134 132 125 106 78 46 59 78 50 66 67 57 103 109 148 150 143 99 88 131 325 103 65 184 144 224 154 216 161 157 162 164 167 163 133 130 135 136 137 139 140 140 127 122
141 143 144 142 143 146 144 141 138 134 131 121 75 49 74 59 64 12 19 47 33 34 37 89 136 123 174 187 128 155 258 143 187 94 129 257 240 100 133 162 168 166 160 146 146 154 150 147 147 144 132 126 125 121
142 142 145 143 144 141 141 148 146 137 124 63 78 73 111 64 64 36 71 49 23 93 64 89 119 137 163 168 129 283 140 145 223 121 237 182 227 179 163 151 148 145 152 152 167 164 164 154 148 140 130 123 123 124
139 142 140 142 147 141 143 145 141 137 104 130 117 114 94 53 71 83 66 103 105 112 121 143 120 103 120 207 146 183 149 184 238 142 202 227 116 135 138 139 134 142 152 145 139 139 138 136 136 132 130 126 123 121
144 139 140 144 140 138 142 143 138 119 108 84 81 74 16 17 78 103 146 129 140 144 156 153 123 82 144 121 89 135 183 105 135 219 224 50 141 143 139 134 123 123 124 126 118 119 122 120 123 132 129 129 128 126
143 142 141 144 146 141 137 138 126 79 63 54 64 81 26 75 88 95 93 102 85 125 135 122 93 88 110 94 86 182 88 238 248 250 137 147 167 152 144 136 133 126 122 125 124 122 120 119 117 122 132 139 137 135
139 139 143 146 142 132 130 129 111 82 63 80 77 75 78 84 84 89 83 113 89 127 141 124 107 110 88 111 136 136 177 218 248 356 71 135 158 154 149 144 138 133 128 119 123 123 125 129 127 124 128 127 134 137
136 132 137 147 137 131 119 93 62 76 69 73 53 115 94 121 106 102 82 78 77 124 175 73 109 124 111 118 165 208 234 219 95 67 101 142 153 153 144 138 131 130 130 131 134 138 137 137 137 133 126 130 140 143
122 132 153 141 132 127 111 74 52 54 73 49 73 46 67 61 75 75 46 56 335 275 88 86 110 88 124 183 201 204 257 32 71 114 129 150 156 146 134 131 131 133 134 139 140 143 137 134 133 132 131 140 136 137
126 143 147 140 135 110 46 36 69 61 63 46 85 69 66 48 103 74 66 6 342 68 343 64 137 182 187 191 195 158 131 118 80 116 137 136 131 135 141 140 143 146 145 144 143 139 140 144 143 136 134 140 143 158
133 137 140 138 97 76 59 48 16 83 62 57 93 58 57 70 71 76 73 87 82 101 149 136 229 216 215 222 329 127 154 165 150 132 117 126 139 140 140 143 146 149 149 150 151 153 153 152 145 145 145 154 151 157
137 141 125 69 40 76 81 54 26 85 108 83 94 93 77 60 40 64 48 124 183 194 217 216 227 207 243 68 74 88 135 138 140 136 134 141 149 149 154 156 158 156 153 154 154 151 148 144 149 151 153 154 153 141
130 119 110 35 46 56 77 77 70 64 121 94 111 148 121 168 194 219 196 167 224 231 230 227 232 116 89 88 79 114 142 159 166 165 167 161 167 165 160 162 159 162 162 163 161 160 165 164 158 154 150 145 133 132
127 121 70 35 65 67 85 29 85 99 80 126 156 174 152 176 176 189 143 209 236 234 219 218 186 156 165 171 142 135 147 143 119 107 118 142 160 168 170 168 168 170 170 170 169 165 164 157 153 150 146 138 131 133
110 75 53 33 76 43 70 290 95 97 121 154 152 176 184 203 167 201 252 248 266 60 339 308 97 119 123 112 115 112 142 152 145 133 146 157 159 164 165 171 175 171 167 168 166 164 162 158 153 150 145 142 144 136
92 54 46 46 21 94 219 119 116 114 116 152 176 203 183 190 167 228 256 250 110 80 216 187 167 128 112 139 159 151 154 156 132 129 151 155 156 164 168 169 172 175 172 161 160 160 156 156 156 154 153 151 155 157
122 46 51 75 99 122 122 141 167 182 184 173 201 207 176 187 232 239 252 240 186 213 193 173 188 199 187 153 149 148 161 165 164 152 160 166 154 151 157 161 163 163 161 159 163 159 156 157 162 159 157 160 157 153
84 77 15 154 139 192 160 161 189 197 182 185 201 112 183 213 243 245 243 193 203 223 187 197 181 166 173 186 168 164 166 162 154 147 154 167 171 169 163 162 162 164 170 174 168 167 165 164 162 155 150 144 146 146
170 160 141 65 161 158 165 161 152 189 192 204 173 178 186 231 242 238 64 183 196 175 149 80 182 207 177 150 133 125 135 137 130 127 143 147 155 166 171 170 176 171 171 168 171 174 167 164 160 156 147 141 141 144
186 181 182 173 194 212 182 187 205 210 198 160 160 190 207 216 253 99 136 156 159 146 163 135 135 108 135 140 143 139 125 130 124 120 115 108 118 130 142 151 159 163 160 158 154 156 158 158 156 152 150 144 136 123
205 190 171 171 182 203 218 209 221 187 135 181 204 194 220 204 105 171 178 174 170 169 168 160 129 123 117 120 129 143 147 151 151 155 154 149 152 132 142 140 140 145 146 146 149 148 146 142 140 141 137 134 131 126
208 181 188 175 195 215 177 304 114 69 30 358 346 243 228 215 210 205 181 181 189 198 196 183 167 167 163 158 149 149 166 173 177 174 170 172 170 160 152 146 144 143 140 136 131 129 141 141 138 135 130 127 128 127
130 176 182 193 230 64 38 47 127 149 343 253 51 276 291 332 284 231 211 210 201 181 173 173 178 184 175 173 172 168 175 190 179 172 165 163 162 157 156 154 149 147 146 144 142 141 139 133 134 133 134 133 135 130
181 198 199 208 195 88 184 216 219 240 234 237 199 235 228 239 252 149 281 194 196 202 206 196 190 197 191 182 176 168 174 179 177 176 171 160 155 158 157 153 151 148 146 143 142 141 142 137 138 139 138 134 135 130
139 135 141 170 182 187 157 220 204 237 236 248 223 297 257 276 259 64 5 194 218 226 213 200 183 179 182 178 171 177 162 167 172 171 167 166 162 157 153 150 150 148 147 142 142 143 142 141 138 139 141 140 138 135